Location: Góry Miechowskie
(50.3599°N, 20.1803°E)
Time: 07:36:09
(UTC+00:00)

Cosmos 1461 - Pass Details

Date: 17 September 2024
Orbit: 489 x 565 km, 65.0° (Epoch: 12 October)

Event Time Altitude Azimuth Distance (km) Brightness Sun altitude
Exits shadow 01:03:08 13° 347° (NNW) 1,487 5.3 -28.6°
Drops below altitude 10° 01:04:38 10° 10° (N) 1,696 6.0 -28.4°
Sets 01:07:44 0° 37° (NE) 2,591 7.5 -28.1°
